usa flag      new mexico flag

Language: 

LomaPinon History Data from Weather Underground


LomaPinon Weather Station Historical Data
 
Daily Summary for October 17, 2017 Units:  English    Metric   Both
« Previous Day
Next Day »
Daily Weekly Monthly Yearly Custom
  Current: High: Low: Average:
Temperature: 72.1 °F 78.2 °F 42.7 °F 58.8 °F
Dew Point: 24.8 °F 36.5 °F 24.8 °F 30 °F
Humidity: 17 % 55 % 17 % 36 %
Wind Speed: 0.0 mph 5.0 mph 0.0 mph 0.5 mph
Wind Gust: 0.0 mph 9.0 mph - -
Wind:Calm - - SSE
Pressure: 30.28 in 30.51 in 30.28 in -
Precipitation: 0.00 in      
Historical Graphs
 
 
Tabular Data for October 17, 2017
Time Temperature Dew Point Pressure Wind Wind Speed Wind Gust Humidity Rainfall Rate (Hourly) solar
00:01 52.9 °F 26.6 °F 30.51 in SSW 3.0 mph 4.0 mph 36 % 0.00 in 0 W/m2
00:06 52.8 °F 26.6 °F 30.51 in SSW 3.0 mph 4.0 mph 36 % 0.00 in 0 W/m2
00:11 52.7 °F 26.5 °F 30.51 in SSW 4.0 mph 4.0 mph 36 % 0.00 in 0 W/m2
00:16 52.6 °F 26.4 °F 30.51 in SSW 3.0 mph 5.0 mph 36 % 0.00 in 0 W/m2
00:21 52.5 °F 26.3 °F 30.51 in Calm   5.0 mph 36 % 0.00 in 0 W/m2
00:26 52.3 °F 27.4 °F 30.51 in Calm   3.0 mph 38 % 0.00 in 0 W/m2
00:31 51.9 °F 27.1 °F 30.51 in Calm     38 % 0.00 in 0 W/m2
00:36 51.5 °F 27.3 °F 30.51 in Calm     39 % 0.00 in 0 W/m2
00:41 51.1 °F 26.3 °F 30.51 in SSW 2.0 mph 3.0 mph 38 % 0.00 in 0 W/m2
00:46 50.9 °F 25.5 °F 30.51 in SSW 3.0 mph 4.0 mph 37 % 0.00 in 0 W/m2
00:51 51.1 °F 25.7 °F 30.50 in SW 3.0 mph 6.0 mph 37 % 0.00 in 0 W/m2
00:56 51.3 °F 25.9 °F 30.50 in SSW 3.0 mph 6.0 mph 37 % 0.00 in 0 W/m2
01:01 51.5 °F 26.1 °F 30.50 in SSW 4.0 mph 4.0 mph 37 % 0.00 in 0 W/m2
01:06 51.8 °F 26.3 °F 30.50 in SSW 3.0 mph 5.0 mph 37 % 0.00 in 0 W/m2
01:11 52.0 °F 26.5 °F 30.50 in SSW 2.0 mph 5.0 mph 37 % 0.00 in 0 W/m2
01:13 52.1 °F 26.6 °F 30.50 in Calm   4.0 mph 37 % 0.00 in 0 W/m2
01:18 52.2 °F 26.7 °F 30.51 in Calm   4.0 mph 37 % 0.00 in 0 W/m2
01:23 52.2 °F 26.0 °F 30.51 in Calm     36 % 0.00 in 0 W/m2
01:28 52.1 °F 25.9 °F 30.51 in Calm     36 % 0.00 in 0 W/m2
01:33 52.1 °F 25.9 °F 30.50 in Calm     36 % 0.00 in 0 W/m2
01:38 52.0 °F 26.5 °F 30.51 in Calm     37 % 0.00 in 0 W/m2
01:43 51.9 °F 26.4 °F 30.51 in Calm     37 % 0.00 in 0 W/m2
01:48 51.9 °F 26.4 °F 30.51 in Calm     37 % 0.00 in 0 W/m2
01:53 51.9 °F 26.4 °F 30.51 in Calm     37 % 0.00 in 0 W/m2
01:58 51.9 °F 26.4 °F 30.51 in Calm     37 % 0.00 in 0 W/m2
02:03 51.8 °F 27.6 °F 30.51 in Calm     39 % 0.00 in 0 W/m2
02:08 51.4 °F 27.2 °F 30.51 in Calm     39 % 0.00 in 0 W/m2
02:13 51.0 °F 26.9 °F 30.51 in Calm     39 % 0.00 in 0 W/m2
02:18 50.7 °F 27.2 °F 30.50 in Calm     40 % 0.00 in 0 W/m2
02:23 50.3 °F 26.9 °F 30.50 in Calm     40 % 0.00 in 0 W/m2
02:28 50.0 °F 27.2 °F 30.50 in Calm     41 % 0.00 in 0 W/m2
02:33 49.8 °F 27.0 °F 30.50 in Calm     41 % 0.00 in 0 W/m2
02:38 49.5 °F 27.3 °F 30.50 in Calm     42 % 0.00 in 0 W/m2
02:43 49.1 °F 27.0 °F 30.49 in Calm     42 % 0.00 in 0 W/m2
02:48 48.8 °F 26.7 °F 30.49 in Calm     42 % 0.00 in 0 W/m2
02:53 48.6 °F 27.1 °F 30.49 in Calm     43 % 0.00 in 0 W/m2
02:58 48.5 °F 27.0 °F 30.49 in Calm     43 % 0.00 in 0 W/m2
03:03 48.3 °F 27.4 °F 30.48 in Calm     44 % 0.00 in 0 W/m2
03:08 48.2 °F 27.3 °F 30.48 in Calm     44 % 0.00 in 0 W/m2
03:13 48.0 °F 27.6 °F 30.48 in Calm     45 % 0.00 in 0 W/m2
03:18 47.8 °F 28.0 °F 30.48 in Calm     46 % 0.00 in 0 W/m2
03:23 47.5 °F 27.7 °F 30.48 in Calm     46 % 0.00 in 0 W/m2
03:28 47.3 °F 27.0 °F 30.48 in Calm     45 % 0.00 in 0 W/m2
03:33 47.1 °F 26.8 °F 30.48 in Calm     45 % 0.00 in 0 W/m2
03:38 46.9 °F 27.2 °F 30.47 in Calm     46 % 0.00 in 0 W/m2
03:43 46.7 °F 27.0 °F 30.47 in Calm     46 % 0.00 in 0 W/m2
03:48 46.5 °F 27.3 °F 30.47 in Calm     47 % 0.00 in 0 W/m2
03:53 46.3 °F 27.2 °F 30.47 in Calm     47 % 0.00 in 0 W/m2
03:58 46.1 °F 27.5 °F 30.47 in Calm     48 % 0.00 in 0 W/m2
04:03 45.9 °F 27.3 °F 30.47 in Calm     48 % 0.00 in 0 W/m2
04:08 45.8 °F 27.2 °F 30.47 in Calm     48 % 0.00 in 0 W/m2
04:13 45.6 °F 27.5 °F 30.47 in Calm     49 % 0.00 in 0 W/m2
04:18 45.6 °F 27.0 °F 30.47 in Calm     48 % 0.00 in 0 W/m2
04:23 45.5 °F 26.9 °F 30.47 in Calm     48 % 0.00 in 0 W/m2
04:28 45.5 °F 27.4 °F 30.47 in Calm     49 % 0.00 in 0 W/m2
04:33 45.4 °F 27.3 °F 30.47 in Calm     49 % 0.00 in 0 W/m2
04:38 45.4 °F 27.3 °F 30.47 in Calm     49 % 0.00 in 0 W/m2
04:43 45.4 °F 27.3 °F 30.47 in Calm     49 % 0.00 in 0 W/m2
04:48 45.4 °F 26.8 °F 30.47 in Calm     48 % 0.00 in 0 W/m2
04:53 45.3 °F 26.7 °F 30.47 in Calm     48 % 0.00 in 0 W/m2
04:58 45.2 °F 26.7 °F 30.47 in Calm     48 % 0.00 in 0 W/m2
05:03 45.1 °F 27.1 °F 30.47 in Calm     49 % 0.00 in 0 W/m2
05:08 45.0 °F 27.0 °F 30.47 in Calm     49 % 0.00 in 0 W/m2
05:13 44.9 °F 26.9 °F 30.47 in Calm     49 % 0.00 in 0 W/m2
05:18 44.8 °F 27.3 °F 30.47 in Calm     50 % 0.00 in 0 W/m2
05:24 44.8 °F 26.8 °F 30.47 in Calm     49 % 0.00 in 0 W/m2
05:29 44.7 °F 26.7 °F 30.47 in Calm     49 % 0.00 in 0 W/m2
05:34 44.6 °F 26.6 °F 30.47 in Calm     49 % 0.00 in 0 W/m2
05:39 44.5 °F 26.5 °F 30.47 in Calm     49 % 0.00 in 0 W/m2
05:44 44.4 °F 26.4 °F 30.48 in Calm     49 % 0.00 in 0 W/m2
05:49 44.2 °F 26.7 °F 30.48 in Calm     50 % 0.00 in 0 W/m2
05:54 44.1 °F 26.6 °F 30.48 in Calm     50 % 0.00 in 0 W/m2
05:59 43.8 °F 26.3 °F 30.48 in Calm     50 % 0.00 in 0 W/m2
06:04 43.7 °F 26.7 °F 30.48 in Calm     51 % 0.00 in 0 W/m2
06:09 43.6 °F 26.6 °F 30.48 in Calm     51 % 0.00 in 0 W/m2
06:14 43.4 °F 26.5 °F 30.48 in Calm     51 % 0.00 in 0 W/m2
06:19 43.3 °F 26.4 °F 30.47 in Calm     51 % 0.00 in 0 W/m2
06:24 43.2 °F 26.3 °F 30.47 in Calm     51 % 0.00 in 0 W/m2
06:29 43.1 °F 26.7 °F 30.47 in Calm     52 % 0.00 in 0 W/m2
06:34 43.1 °F 26.7 °F 30.47 in Calm     52 % 0.00 in 0 W/m2
06:39 43.1 °F 27.1 °F 30.48 in Calm     53 % 0.00 in 0 W/m2
06:44 43.0 °F 27.0 °F 30.47 in Calm     53 % 0.00 in 0 W/m2
06:49 43.0 °F 27.0 °F 30.48 in Calm     53 % 0.00 in 0 W/m2
06:54 42.9 °F 26.5 °F 30.48 in Calm     52 % 0.00 in 0 W/m2
06:59 42.9 °F 26.9 °F 30.48 in Calm     53 % 0.00 in 0 W/m2
07:04 42.9 °F 26.5 °F 30.48 in Calm     52 % 0.00 in 0 W/m2
07:09 42.9 °F 26.5 °F 30.48 in Calm     52 % 0.00 in 0 W/m2
07:14 42.9 °F 26.5 °F 30.48 in Calm     52 % 0.00 in 5 W/m2
07:19 42.9 °F 26.9 °F 30.49 in Calm     53 % 0.00 in 7 W/m2
07:24 42.9 °F 26.9 °F 30.48 in Calm     53 % 0.00 in 9 W/m2
07:29 43.0 °F 27.0 °F 30.48 in Calm     53 % 0.00 in 11 W/m2
07:34 43.0 °F 27.0 °F 30.49 in Calm     53 % 0.00 in 14 W/m2
07:39 43.0 °F 27.0 °F 30.49 in Calm     53 % 0.00 in 18 W/m2
07:44 42.9 °F 26.9 °F 30.49 in Calm     53 % 0.00 in 19 W/m2
07:49 42.9 °F 26.9 °F 30.49 in Calm     53 % 0.00 in 21 W/m2
07:54 42.8 °F 27.7 °F 30.49 in Calm     55 % 0.00 in 25 W/m2
07:59 42.8 °F 27.7 °F 30.49 in Calm     55 % 0.00 in 26 W/m2
08:04 42.8 °F 27.7 °F 30.49 in Calm     55 % 0.00 in 26 W/m2
08:09 42.7 °F 27.2 °F 30.49 in Calm     54 % 0.00 in 28 W/m2
08:14 42.9 °F 27.4 °F 30.49 in Calm     54 % 0.00 in 167 W/m2
08:19 43.5 °F 27.9 °F 30.49 in Calm     54 % 0.00 in 190 W/m2
08:24 44.3 °F 28.7 °F 30.49 in Calm     54 % 0.00 in 211 W/m2
08:29 45.1 °F 29.4 °F 30.50 in Calm     54 % 0.00 in 234 W/m2
08:34 46.1 °F 29.4 °F 30.50 in Calm     52 % 0.00 in 255 W/m2
08:36 46.4 °F 29.7 °F 30.50 in Calm     52 % 0.00 in 262 W/m2
08:41 47.3 °F 30.5 °F 30.50 in Calm     52 % 0.00 in 283 W/m2
08:46 48.3 °F 31.0 °F 30.50 in Calm     51 % 0.00 in 301 W/m2
08:51 49.3 °F 30.9 °F 30.50 in Calm     49 % 0.00 in 350 W/m2
08:55 50.0 °F 31.6 °F 30.50 in Calm     49 % 0.00 in 374 W/m2
09:00 51.1 °F 31.6 °F 30.51 in Calm     47 % 0.00 in 388 W/m2
09:05 52.2 °F 30.9 °F 30.51 in Calm     44 % 0.00 in 406 W/m2
09:10 53.3 °F 30.2 °F 30.50 in Calm     41 % 0.00 in 417 W/m2
09:15 54.3 °F 30.5 °F 30.50 in Calm   1.0 mph 40 % 0.00 in 406 W/m2
09:20 55.1 °F 29.9 °F 30.50 in Calm   1.0 mph 38 % 0.00 in 415 W/m2
09:25 55.9 °F 29.3 °F 30.50 in Calm     36 % 0.00 in 429 W/m2
09:30 56.7 °F 29.3 °F 30.50 in Calm     35 % 0.00 in 585 W/m2
09:35 57.5 °F 30.0 °F 30.50 in Calm     35 % 0.00 in 570 W/m2
09:40 58.2 °F 28.5 °F 30.50 in Calm     32 % 0.00 in 476 W/m2
09:45 59.1 °F 29.2 °F 30.49 in Calm     32 % 0.00 in 492 W/m2
09:50 59.9 °F 29.9 °F 30.50 in Calm     32 % 0.00 in 506 W/m2
09:55 60.9 °F 30.0 °F 30.49 in Calm     31 % 0.00 in 520 W/m2
10:00 61.6 °F 30.6 °F 30.49 in Calm     31 % 0.00 in 533 W/m2
10:05 62.3 °F 29.6 °F 30.49 in Calm     29 % 0.00 in 547 W/m2
10:10 62.9 °F 31.0 °F 30.49 in Calm     30 % 0.00 in 561 W/m2
10:15 63.5 °F 31.5 °F 30.49 in Calm     30 % 0.00 in 573 W/m2
10:20 64.1 °F 32.8 °F 30.49 in Calm     31 % 0.00 in 585 W/m2
10:26 64.7 °F 32.5 °F 30.49 in Calm     30 % 0.00 in 599 W/m2
10:31 65.3 °F 33.0 °F 30.49 in Calm     30 % 0.00 in 612 W/m2
10:36 65.5 °F 34.0 °F 30.49 in Calm     31 % 0.00 in 626 W/m2
10:41 65.7 °F 34.2 °F 30.48 in Calm     31 % 0.00 in 603 W/m2
10:46 65.9 °F 34.4 °F 30.48 in Calm     31 % 0.00 in 640 W/m2
10:51 66.1 °F 35.4 °F 30.48 in Calm     32 % 0.00 in 652 W/m2
10:56 66.6 °F 35.8 °F 30.48 in Calm     32 % 0.00 in 663 W/m2
11:01 67.3 °F 35.6 °F 30.47 in Calm     31 % 0.00 in 687 W/m2
11:06 67.8 °F 35.2 °F 30.47 in NNE 1.0 mph 1.0 mph 30 % 0.00 in 717 W/m2
11:11 68.4 °F 35.7 °F 30.47 in Calm   1.0 mph 30 % 0.00 in 700 W/m2
11:16 69.0 °F 35.4 °F 30.47 in Calm   1.0 mph 29 % 0.00 in 738 W/m2
11:21 69.2 °F 35.6 °F 30.46 in Calm   2.0 mph 29 % 0.00 in 624 W/m2
11:26 69.3 °F 36.5 °F 30.46 in Calm   2.0 mph 30 % 0.00 in 733 W/m2
11:31 69.7 °F 36.0 °F 30.46 in Calm   1.0 mph 29 % 0.00 in 744 W/m2
11:36 69.8 °F 35.2 °F 30.46 in Calm   3.0 mph 28 % 0.00 in 744 W/m2
11:41 69.8 °F 36.1 °F 30.45 in NE 1.0 mph 3.0 mph 29 % 0.00 in 740 W/m2
11:46 69.9 °F 35.3 °F 30.45 in Calm   4.0 mph 28 % 0.00 in 615 W/m2
11:51 69.9 °F 35.3 °F 30.45 in Calm   4.0 mph 28 % 0.00 in 738 W/m2
11:56 69.8 °F 35.2 °F 30.45 in Calm   4.0 mph 28 % 0.00 in 738 W/m2
12:01 70.1 °F 36.3 °F 30.44 in ESE 2.0 mph 6.0 mph 29 % 0.00 in 751 W/m2
12:07 70.2 °F 35.5 °F 30.44 in Calm   6.0 mph 28 % 0.00 in 735 W/m2
12:11 70.3 °F 34.7 °F 30.44 in Calm   4.0 mph 27 % 0.00 in 788 W/m2
12:16 70.6 °F 35.9 °F 30.44 in Calm   4.0 mph 28 % 0.00 in 795 W/m2
12:21 70.8 °F 35.1 °F 30.43 in Calm   5.0 mph 27 % 0.00 in 793 W/m2
12:26 71.2 °F 35.5 °F 30.43 in SSE 2.0 mph 5.0 mph 27 % 0.00 in 782 W/m2
12:28 71.4 °F 35.7 °F 30.43 in South 2.0 mph 5.0 mph 27 % 0.00 in 786 W/m2
12:33 71.8 °F 35.0 °F 30.42 in Calm   4.0 mph 26 % 0.00 in 751 W/m2
12:38 72.2 °F 35.4 °F 30.42 in Calm   7.0 mph 26 % 0.00 in 795 W/m2
12:43 72.8 °F 34.9 °F 30.42 in Calm   7.0 mph 25 % 0.00 in 793 W/m2
12:48 72.8 °F 34.9 °F 30.41 in Calm   7.0 mph 25 % 0.00 in 788 W/m2
12:53 72.9 °F 35.0 °F 30.40 in Calm   7.0 mph 25 % 0.00 in 793 W/m2
12:58 73.1 °F 36.2 °F 30.40 in South 3.0 mph 5.0 mph 26 % 0.00 in 791 W/m2
13:03 73.4 °F 34.4 °F 30.39 in SSE 2.0 mph 6.0 mph 24 % 0.00 in 793 W/m2
13:08 73.7 °F 34.6 °F 30.39 in ESE 1.0 mph 6.0 mph 24 % 0.00 in 782 W/m2
13:13 73.7 °F 34.6 °F 30.38 in SE 5.0 mph 8.0 mph 24 % 0.00 in 726 W/m2
13:18 73.5 °F 35.5 °F 30.38 in SE 3.0 mph 8.0 mph 25 % 0.00 in 682 W/m2
13:23 73.1 °F 35.2 °F 30.37 in SE 1.0 mph 7.0 mph 25 % 0.00 in 613 W/m2
13:28 73.0 °F 35.1 °F 30.37 in SE 1.0 mph 7.0 mph 25 % 0.00 in 671 W/m2
13:33 73.3 °F 35.3 °F 30.37 in Calm   6.0 mph 25 % 0.00 in 738 W/m2
13:38 73.9 °F 34.8 °F 30.36 in Calm   5.0 mph 24 % 0.00 in 719 W/m2
13:43 74.1 °F 35.0 °F 30.36 in SE 5.0 mph 6.0 mph 24 % 0.00 in 728 W/m2
13:48 74.2 °F 35.1 °F 30.35 in Calm   7.0 mph 24 % 0.00 in 721 W/m2
13:53 74.3 °F 34.1 °F 30.35 in Calm   7.0 mph 23 % 0.00 in 710 W/m2
13:58 74.7 °F 35.5 °F 30.35 in Calm   5.0 mph 24 % 0.00 in 696 W/m2
14:03 75.1 °F 34.8 °F 30.34 in Calm   6.0 mph 23 % 0.00 in 631 W/m2
14:08 75.6 °F 34.1 °F 30.34 in Calm   6.0 mph 22 % 0.00 in 670 W/m2
14:13 75.9 °F 33.1 °F 30.33 in SSE 2.0 mph 6.0 mph 21 % 0.00 in 635 W/m2
14:18 75.9 °F 34.3 °F 30.33 in SSW 3.0 mph 5.0 mph 22 % 0.00 in 689 W/m2
14:21 76.1 °F 33.3 °F 30.33 in ESE 2.0 mph 5.0 mph 21 % 0.00 in 680 W/m2
14:26 76.2 °F 34.6 °F 30.33 in SSW 4.0 mph 4.0 mph 22 % 0.00 in 684 W/m2
14:31 76.6 °F 33.7 °F 30.32 in South 2.0 mph 4.0 mph 21 % 0.00 in 666 W/m2
14:36 76.8 °F 33.9 °F 30.32 in South 3.0 mph 9.0 mph 21 % 0.00 in 657 W/m2
14:41 77.1 °F 32.9 °F 30.32 in Calm   9.0 mph 20 % 0.00 in 626 W/m2
14:46 77.1 °F 32.9 °F 30.31 in Calm   6.0 mph 20 % 0.00 in 615 W/m2
14:51 77.2 °F 31.7 °F 30.31 in Calm   5.0 mph 19 % 0.00 in 605 W/m2
14:56 77.3 °F 33.1 °F 30.31 in SE 2.0 mph 5.0 mph 20 % 0.00 in 573 W/m2
15:01 77.6 °F 32.1 °F 30.31 in South 1.0 mph 5.0 mph 19 % 0.00 in 575 W/m2
15:06 77.8 °F 33.5 °F 30.31 in Calm   4.0 mph 20 % 0.00 in 547 W/m2
15:11 78.1 °F 32.5 °F 30.31 in SSE 1.0 mph 7.0 mph 19 % 0.00 in 559 W/m2
15:16 78.2 °F 32.5 °F 30.31 in South 2.0 mph 7.0 mph 19 % 0.00 in 513 W/m2
15:21 77.8 °F 32.2 °F 30.31 in Calm   4.0 mph 19 % 0.00 in 561 W/m2
15:27 77.8 °F 33.5 °F 30.30 in Calm   6.0 mph 20 % 0.00 in 489 W/m2
15:32 77.6 °F 33.3 °F 30.30 in Calm   6.0 mph 20 % 0.00 in 515 W/m2
15:37 77.5 °F 33.2 °F 30.30 in Calm   4.0 mph 20 % 0.00 in 490 W/m2
15:42 77.2 °F 33.0 °F 30.30 in Calm   6.0 mph 20 % 0.00 in 459 W/m2
15:47 77.0 °F 32.8 °F 30.30 in SSE 1.0 mph 6.0 mph 20 % 0.00 in 462 W/m2
15:52 76.9 °F 32.8 °F 30.30 in Calm   5.0 mph 20 % 0.00 in 480 W/m2
15:57 76.8 °F 32.7 °F 30.30 in SSE 2.0 mph 5.0 mph 20 % 0.00 in 454 W/m2
16:02 76.9 °F 32.8 °F 30.30 in SSE 3.0 mph 4.0 mph 20 % 0.00 in 362 W/m2
16:07 76.3 °F 31.0 °F 30.30 in Calm   5.0 mph 19 % 0.00 in 404 W/m2
16:12 75.8 °F 31.8 °F 30.30 in Calm   5.0 mph 20 % 0.00 in 352 W/m2
16:17 75.5 °F 30.3 °F 30.30 in SSE 1.0 mph 5.0 mph 19 % 0.00 in 362 W/m2
16:22 75.3 °F 31.4 °F 30.30 in Calm   5.0 mph 20 % 0.00 in 84 W/m2
16:27 75.1 °F 30.0 °F 30.30 in SSE 2.0 mph 5.0 mph 19 % 0.00 in 74 W/m2
16:32 74.8 °F 29.8 °F 30.30 in SSE 1.0 mph 4.0 mph 19 % 0.00 in 63 W/m2
16:37 74.7 °F 28.3 °F 30.30 in Calm   4.0 mph 18 % 0.00 in 54 W/m2
16:42 74.6 °F 29.6 °F 30.30 in Calm   4.0 mph 19 % 0.00 in 47 W/m2
16:47 74.4 °F 29.4 °F 30.29 in Calm     19 % 0.00 in 42 W/m2
16:57 74.2 °F 30.5 °F 30.29 in Calm   5.0 mph 20 % 0.00 in 33 W/m2
17:02 74.0 °F 29.1 °F 30.29 in SSE 2.0 mph 5.0 mph 19 % 0.00 in 32 W/m2
17:07 73.8 °F 28.9 °F 30.29 in Calm   4.0 mph 19 % 0.00 in 30 W/m2
17:09 73.7 °F 28.8 °F 30.29 in SSE 2.0 mph 4.0 mph 19 % 0.00 in 28 W/m2
17:14 73.5 °F 29.9 °F 30.29 in South 1.0 mph 5.0 mph 20 % 0.00 in 28 W/m2
17:20 73.3 °F 29.8 °F 30.29 in Calm   5.0 mph 20 % 0.00 in 26 W/m2
17:25 73.1 °F 29.6 °F 30.28 in Calm   4.0 mph 20 % 0.00 in 25 W/m2
17:30 73.0 °F 34.1 °F 30.29 in Calm   1.0 mph 24 % 0.00 in 25 W/m2
17:35 72.9 °F 29.4 °F 30.28 in Calm   1.0 mph 20 % 0.00 in 23 W/m2
17:40 72.8 °F 29.4 °F 30.28 in Calm     20 % 0.00 in 21 W/m2
17:45 72.5 °F 31.5 °F 30.28 in Calm     22 % 0.00 in 19 W/m2
17:50 72.1 °F 24.8 °F 30.28 in Calm     17 % 0.00 in 19 W/m2
Rio Rancho, New Mexico Weather
Compliments of Weather Underground - 2 mb
top